Regional Weather Roundup
Issued by NWS

Home | Current Version | Previous Version | Graphics & Text | Print | Product List | Glossary On
Versions: 1 2 3 4 5 6 7 8 9 10 11 12 13 14 15 16 17 18 19 20 21 22 23 24 25 26 27 28 29 30 31 32 33 34 35 36 37 38 39 40 41 42 43 44 45 46 47 48 49 50
000
ASUS43 KTOP 221359
RWRKS

WEATHER ROUNDUP FOR KANSAS
NATIONAL WEATHER SERVICE GOODLAND KS
800 AM CST MON DEC 22 2014

NOTE:  "FAIR" INDICATES FEW OR NO CLOUDS BELOW 12,000 FEET WITH NO
SIGNIFICANT WEATHER AND/OR OBSTRUCTIONS TO VISIBILITY.

KSZ001>006-013>018-027>032-041>047-221500-
NORTHWEST KANSAS

CITY           SKY/WX    TMP DP  RH WIND       PRES   REMARKS
GOODLAND       PTCLDY    35  28  75 NW16      29.68R WCI  25
HAYS           MOCLDY    43  30  61 NW13      29.60R
HILL CITY      CLOUDY    42  32  67 N20G32    29.61R
RUSSELL        LGT RAIN  41  38  89 N18G26    29.56R
$$

KSZ061>065-074>080-084>089-221500-
SOUTHWEST KANSAS

CITY           SKY/WX    TMP DP  RH WIND       PRES   REMARKS
DODGE CITY     MOCLDY    42  29  59 NW17G28   29.64R
ELKHART          N/A    N/A N/A N/A MISG        N/A
GARDEN CITY    MOCLDY    39  29  67 NW18      29.67R WCI  30
GREAT BEND     MOCLDY    39  34  81 NW12      29.58S WCI  32
LIBERAL        PTCLDY    39  32  75 NW15      29.71R WCI  31
$$

KSZ066>073-081>083-090>101-221500-
SOUTHEAST KANSAS

CITY           SKY/WX    TMP DP  RH WIND       PRES   REMARKS
CHANUTE        CLOUDY    45  44  97 SE8       29.59F FOG
COFFEYVILLE    CLOUDY    45  45 100 SE6       29.59F FOG
HUTCHINSON     CLOUDY    45  43  93 SW7       29.56S FOG
MEDICINE LODGE   N/A     43  43 100 NW6       29.57R
NEWTON         CLOUDY    43  39  87 S6        29.57S VSB 1
PARSONS        CLOUDY    45  45 100 SE5       29.60S FOG
WICHITA INTL   LGT RAIN  45  43  93 S3        29.56F VSB 1
WICHITA JABRA  CLOUDY    44  43  96 S7        29.56S
WICHITA MCCONL MIX PCPN  45  45 100 S5        29.56F FOG
WINFIELD       CLOUDY    45  45 100 S6        29.58R FOG
$$

KSZ007>012-019>026-033>040-048>060-102>105-221500-
NORTHEAST KANSAS

CITY           SKY/WX    TMP DP  RH WIND       PRES   REMARKS
CONCORDIA      CLOUDY    44  43  96 W12       29.52S
EMPORIA        CLOUDY    43  43 100 S13       29.56S FOG
LAWRENCE       CLOUDY    43  41  93 SE9       29.58F
MANHATTAN      LGT RAIN  44  43  96 S7        29.54S
OLATHE IND     LGT RAIN  42  41  96 SE10      29.59F FOG
OLATHE EXE     LGT RAIN  42  32  67 SE9       29.59F
SALINA         CLOUDY    45  43  93 SW9       29.55R
TOPEKA BILLARD LGT RAIN  45  43  93 SE7       29.57F FOG
TOPEKA FORBES  CLOUDY    45  42  89 S9        29.56F FOG
$$


USA.gov is the U.S. government's official web portal to all federal, state and local government web resources and services.